SCP
0 0 0 0 0 0 0 0 0 0 0 0 0 0 0 0 0 0 0 0 1 0 0 0 0 0 1 1 1 1 1 1 1 1 -0 -0 0 1 1 1 1 1 1 0 0 0 0 -0 -0
0 0 0 0 0 0 0 0 0 0 0 0 0 0 0 0 0 0 1 0 1 0 0 0 0 0 1 1 1 1 1 1 1 1 0 -0 -0 0 1 1 1 1 0 0 0 0 0 -0 -0
0 0 0 0 0 0 0 0 0 0 0 0 0 0 0 0 0 0 0 0 1 0 0 0 0 1 1 1 1 1 1 1 1 1 1 1 0 0 0 0 1 0 0 0 0 0 -0 -0 -0
0 0 0 0 0 0 0 0 0 0 0 0 0 0 0 0 0 0 0 1 1 0 0 0 0 1 1 1 1 1 1 1 1 1 1 1 1 1 0 -0 -0 0 0 0 0 -0 -0 -0 -0
0 0 0 0 0 0 0 -0 0 0 0 0 0 0 0 0 1 1 1 1 1 0 0 0 1 1 1 1 1 1 1 1 1 1 1 1 1 1 0 0 -0 -0 0 0 0 -0 -0 -0 0
0 0 0 0 0 0 -0 0 0 0 0 0 0 0 0 0 1 1 1 1 0 0 0 0 0 1 1 1 1 1 1 1 1 2 2 1 1 1 1 0 0 0 0 0 0 0 0 0 0
0 0 0 0 0 0 0 -0 0 0 0 0 0 0 0 1 1 1 1 1 0 0 0 1 1 1 1 1 1 0 0 0 1 1 1 1 1 1 0 0 0 0 0 0 0 0 0 0 0
0 0 0 0 0 0 0 0 0 0 0 0 0 0 0 0 1 1 0 0 0 0 0 1 1 1 1 0 0 0 0 0 0 0 0 0 1 0 0 0 0 -0 -0 0 0 0 0 0 0
0 0 0 0 0 0 0 0 0 0 0 0 0 0 0 0 1 1 0 0 1 0 0 0 1 0 0 0 0 0 0 0 0 0 0 0 0 0 0 0 0 0 0 0 0 0 0 0 0
0 0 0 0 0 0 0 0 -0 -0 0 0 0 0 0 1 1 1 0 0 0 0 0 0 0 0 0 0 0 0 0 0 0 0 0 0 0 0 0 0 0 0 0 0 0 0 0 0 0
0 0 0 0 0 0 0 0 -0 -0 0 0 0 0 1 1 1 1 0 0 0 0 0 0 0 0 0 0 0 0 0 0 0 0 0 0 0 0 0 0 0 0 0 0 0 0 0 0 0
0 0 0 0 0 0 0 0 -0 -0 -0 0 0 0 0 1 1 0 0 0 0 0 0 0 0 0 0 0 0 0 0 0 0 0 0 0 0 0 0 0 0 0 0 0 0 0 0 0 0
0 0 0 0 0 0 0 0 0 -0 0 0 0 0 0 1 1 0 0 0 0 0 0 0 0 0 0 0 0 0 0 0 0 0 0 0 0 0 0 0 0 0 0 0 0 0 0 0 0
0 0 0 0 0 0 0 0 0 -0 0 -0 0 0 0 1 0 0 0 0 0 0 0 0 0 0 0 0 0 0 0 0 0 0 0 0 0 0 0 0 0 0 0 0 0 0 0 0 0
0 0 0 0 0 0 0 0 0 0 0 0 0 0 1 0 0 0 0 0 0 0 0 0 0 0 0 0 0 0 0 0 0 0 0 0 0 0 0 0 0 0 0 0 0 0 0 0 0
0 0 0 0 0 0 0 0 0 0 0 0 0 0 1 0 0 0 0 0 0 0 0 0 0 0 0 0 0 0 0 0 0 0 0 0 0 0 0 0 0 0 0 0 0 0 0 0 0
0 0 0 0 0 0 0 0 0 0 0 0 0 0 0 0 0 0 0 0 0 0 0 0 0 0 0 0 0 0 0 0 0 0 0 0 0 0 0 0 0 0 0 0 0 0 0 0 0
0 0 0 0 0 0 0 0 0 -0 0 0 0 0 0 0 0 0 0 0 0 0 0 -0 0 0 0 0 0 0 0 0 0 0 0 0 0 0 0 0 0 0 0 0 0 0 0 0 0
0 0 0 0 0 0 0 -0 0 0 0 0 0 0 0 0 0 0 0 0 0 0 -0 -0 0 0 0 0 0 0 0 0 0 0 0 0 0 0 0 0 0 0 0 0 0 0 0 0 0
0 0 0 0 0 0 -0 -0 0 -0 0 0 0 0 0 0 0 0 0 0 0 -0 -0 -0 -0 -0 0 0 0 0 0 0 0 0 0 0 0 0 0 0 0 0 0 0 0 0 0 0 0
0 0 0 0 0 0 -0 -0 -0 -0 0 0 0 0 0 0 0 0 0 0 0 -0 -0 -0 -0 -0 0 0 0 0 0 0 0 0 0 0 0 0 0 0 0 0 0 0 0 0 0 0 0
0 0 0 0 0 0 0 -0 -0 -0 0 0 0 0 0 0 0 0 0 0 -0 -0 -0 -0 -0 -0 0 -0 0 -0 0 0 0 0 0 0 0 0 0 0 0 0 0 0 0 0 0 0 0
0 0 0 0 0 0 0 -0 -0 -0 -0 0 0 0 0 0 0 0 0 0 -0 -0 -0 0 0 0 0 -0 -0 -0 -0 -0 0 0 0 0 0 0 0 0 0 0 0 0 0 0 0 0 0
0 0 0 0 0 0 0 0 -0 -0 0 0 0 0 0 0 0 0 0 0 0 0 -0 0 -0 0 0 0 -0 -0 -0 -0 -0 0 0 0 0 0 0 0 0 0 0 0 0 0 0 0 0
0 0 0 0 0 0 0 0 -0 0 0 0 0 0 0 0 0 0 0 0 0 -0 -0 0 0 0 0 0 0 0 -0 -0 -0 -0 -0 -0 0 0 0 0 0 0 0 0 0 0 0 0 0
0 0 0 0 0 0 0 0 0 0 0 0 0 0 0 0 0 0 0 0 0 -0 -0 -0 0 0 0 0 0 0 0 0 0 -0 -0 -0 -0 -0 0 0 0 0 0 0 0 0 0 0 0
0 0 0 0 0 0 0 0 0 0 0 -0 0 0 0 0 0 0 0 0 0 0 -0 -0 0 0 0 0 0 0 0 0 0 0 0 0 -0 0 0 0 0 0 0 0 0 0 0 0 0
0 0 0 0 0 0 0 0 0 0 0 0 0 0 0 0 0 0 0 0 0 0 0 0 0 0 0 0 0 0 0 0 0 0 0 0 0 0 -0 0 0 0 0 0 0 0 0 0 0
0 0 0 0 0 0 0 0 0 0 0 0 0 0 0 0 0 0 0 0 0 0 0 0 0 0 0 0 0 0 0 0 0 0 0 0 0 0 0 0 0 0 0 0 0 0 0 0 0
0 0 0 0 0 0 0 0 0 0 0 0 0 0 0 0 0 0 0 0 0 0 0 0 0 0 0 0 0 0 0 0 0 0 0 0 0 0 0 0 0 0 0 0 0 0 0 0 0
Wind_Speed_500mb
20 18 15 9 6 9 7 13 5 10 15 4 3 10 17 9 11 9 44 34 26 22 20 24 32 37 44 45 46 46 47 49 49 49 54 56 54 56 55 52 52 51 49 48 46 44 42 42 45
22 22 17 7 9 4 11 9 12 11 12 26 4 10 4 5 13 23 38 31 23 18 16 18 25 36 47 48 47 48 47 47 47 50 54 60 58 55 53 52 53 50 47 46 46 45 43 47 47
27 27 12 9 8 12 12 12 10 6 23 5 6 5 7 5 17 38 24 27 24 22 20 17 22 34 46 50 51 49 48 47 46 51 55 62 62 59 58 55 51 46 42 42 47 49 51 49 48
26 13 4 8 15 15 13 9 8 15 20 12 7 8 11 15 16 30 28 27 25 22 20 19 18 28 45 52 53 53 51 49 50 51 59 66 65 64 60 56 51 44 42 43 46 52 51 46 49
29 8 3 5 11 13 11 27 7 13 8 24 19 9 10 20 21 32 31 28 25 23 18 17 17 25 39 52 54 54 53 52 51 53 58 62 62 62 60 58 53 47 47 47 49 49 50 45 47
10 6 3 12 8 12 14 27 7 11 20 41 14 25 18 24 29 33 33 26 24 19 19 17 22 30 34 45 53 51 53 53 52 57 62 65 55 53 54 55 51 46 48 54 54 53 50 48 49
12 8 11 11 7 10 17 19 12 9 13 17 18 15 15 28 36 34 30 26 24 22 21 17 24 35 32 32 40 46 48 47 49 51 52 58 50 52 43 40 47 54 56 54 55 56 55 51 47
11 8 8 12 11 14 11 5 4 7 9 21 7 7 11 37 44 39 32 30 27 25 20 17 20 35 37 34 36 45 50 54 52 48 50 41 48 50 48 50 54 55 54 55 59 59 56 53 46
12 2 8 14 15 11 3 4 5 13 15 44 16 28 13 17 51 47 44 41 39 30 24 19 17 33 35 28 31 38 43 48 50 56 63 52 63 46 53 52 48 53 52 57 62 59 55 49 43
10 10 15 13 11 9 7 11 22 15 25 35 35 19 26 18 63 59 54 52 42 33 24 20 20 26 32 32 37 35 36 40 40 70 58 53 48 51 60 57 46 50 49 61 59 58 54 48 42
9 14 6 8 24 18 7 18 12 10 16 28 25 49 48 30 63 63 56 49 38 30 25 21 23 27 32 38 41 46 44 46 54 66 63 80 64 56 53 54 51 49 50 65 65 63 54 47 42
11 15 22 17 36 21 14 26 16 28 43 61 56 61 57 44 67 69 58 51 45 35 26 23 25 30 33 33 43 44 48 51 47 48 68 72 73 67 62 66 61 54 60 75 73 66 55 46 44
14 7 18 28 35 37 42 21 33 26 64 65 59 52 56 41 60 75 59 49 42 39 32 24 24 29 30 29 36 41 47 45 41 51 59 79 73 72 59 71 63 60 67 79 74 63 54 47 45
14 17 34 40 48 42 31 38 17 46 62 56 51 53 53 47 62 76 64 57 52 44 33 26 27 26 28 26 32 38 39 40 40 49 64 72 72 63 80 72 65 64 76 80 72 65 57 49 49
17 15 16 14 14 16 26 19 20 60 50 54 50 53 51 50 65 78 64 60 54 44 33 29 27 24 23 23 31 33 38 41 45 61 65 73 72 68 68 69 69 67 81 80 71 63 57 55 52
8 6 10 8 16 16 25 42 21 44 45 51 52 54 55 59 70 76 69 62 51 44 38 30 28 26 27 31 29 31 35 40 43 49 60 71 74 72 72 75 74 69 83 82 75 66 60 57 48
4 17 15 10 12 13 17 18 8 17 22 29 37 45 53 66 76 79 73 67 55 46 37 33 29 30 31 33 33 32 32 35 36 43 52 60 71 77 74 83 77 68 80 83 76 68 65 59 51
8 10 11 9 6 2 11 20 13 21 28 37 45 51 50 58 76 83 78 69 56 49 39 35 31 31 34 33 31 32 31 34 35 33 42 55 73 71 80 70 71 68 80 85 80 75 68 61 50
8 14 23 8 13 10 15 17 23 17 27 30 47 45 56 55 55 83 85 69 59 54 49 41 35 34 38 40 39 37 31 31 30 23 23 50 86 86 68 69 72 72 84 87 86 81 71 59 52
15 18 22 12 17 20 19 21 23 20 18 42 45 53 55 54 59 71 79 73 66 64 53 46 38 34 39 40 38 38 37 34 27 29 33 40 40 54 49 59 67 71 75 80 84 84 79 66 58
17 21 14 17 21 20 11 32 29 22 19 37 38 51 49 53 63 72 71 73 74 74 62 50 41 34 39 43 38 36 35 35 29 32 43 48 55 56 64 62 66 67 74 79 86 91 92 85 66
17 14 23 18 13 9 8 15 15 15 19 13 32 44 42 46 56 65 68 72 81 76 66 52 42 35 37 46 39 37 36 39 41 41 42 50 62 55 66 71 73 63 69 69 79 86 86 82 74
12 7 12 10 9 6 3 11 8 13 14 15 16 42 35 23 33 56 68 75 81 77 67 55 45 37 37 44 43 41 41 36 37 38 42 53 57 60 54 67 72 73 71 74 74 78 89 78 76
11 8 12 7 4 12 15 15 7 9 14 11 8 22 27 26 25 42 57 69 76 75 66 59 50 39 37 41 47 47 45 45 44 42 45 51 52 60 61 57 75 65 69 73 75 71 80 85 74
5 3 4 6 7 8 8 14 21 18 18 10 19 36 38 26 27 48 63 72 80 78 70 64 52 41 35 38 42 46 47 47 45 46 49 47 48 55 66 69 68 64 62 72 74 78 72 77 79
12 13 6 5 6 4 3 10 7 10 13 23 25 44 28 28 34 54 64 73 83 78 71 65 54 42 35 33 34 37 38 39 36 31 35 39 45 56 49 74 72 67 67 70 82 78 80 79 75
2 13 7 8 6 3 6 11 9 30 33 33 38 47 44 24 33 57 66 70 77 78 73 64 53 39 31 27 30 32 33 33 27 24 25 27 33 39 48 53 76 67 67 64 74 82 89 93 90
4 3 5 5 6 9 9 1 6 23 27 24 29 31 36 14 4 31 48 55 60 62 63 60 46 33 27 23 23 22 26 28 29 27 25 26 30 37 41 42 67 66 64 63 69 76 77 78 85
8 5 2 6 5 6 4 3 8 19 25 22 26 44 48 35 24 22 30 37 41 47 50 48 39 32 28 21 20 20 21 23 27 31 29 28 29 36 43 46 56 58 61 65 68 70 76 82 88
6 10 9 5 4 7 2 6 6 16 26 27 31 43 51 60 52 41 32 32 34 35 32 31 29 27 22 18 16 18 16 21 21 29 31 29 29 32 41 51 56 59 59 60 63 65 70 75 77
Wind_Direction_500mb
210 191 173 153 62 65 261 258 249 277 319 294 219 155 188 170 168 209 143 151 154 158 175 188 196 204 205 205 200 198 194 189 186 185 186 187 187 182 180 177 174 173 172 170 169 171 171 161 156
187 173 155 129 105 106 262 248 237 213 282 302 212 152 158 214 155 154 158 168 164 166 168 185 198 207 209 207 205 198 193 191 187 184 187 187 187 185 185 182 179 180 180 175 171 169 168 163 163
176 169 160 127 142 187 222 222 226 212 327 302 303 261 303 235 188 172 169 173 174 170 167 169 192 208 213 214 209 202 197 194 192 190 188 188 186 188 187 185 186 184 178 167 168 168 168 168 166
165 161 100 131 198 253 204 235 180 336 345 35 310 274 257 220 181 184 173 176 181 177 173 177 187 205 213 216 216 209 203 201 199 193 187 187 189 190 189 192 189 183 175 170 169 172 172 170 169
170 159 122 204 231 267 249 262 305 300 302 284 268 247 251 212 198 183 182 187 195 189 187 196 206 210 212 217 218 217 210 204 202 200 198 196 193 195 195 194 188 178 172 175 176 178 174 173 170
151 129 119 225 228 253 270 256 252 261 278 300 213 221 235 220 200 191 186 192 196 207 214 218 218 218 214 218 220 219 219 213 207 204 201 194 195 198 193 190 184 177 176 177 177 176 175 173 172
148 119 213 192 201 247 253 279 197 228 276 313 262 171 207 220 203 199 192 201 206 213 230 235 228 224 218 213 220 220 220 217 215 205 201 189 193 189 185 189 178 169 174 176 176 179 171 169 172
201 125 194 201 172 251 258 248 236 219 287 3 355 222 219 213 203 197 203 207 216 219 228 228 232 222 224 224 224 214 216 217 206 184 192 181 174 180 190 199 182 175 173 175 182 176 168 169 170
179 225 218 197 176 228 226 16 286 289 275 320 319 283 266 226 200 199 206 212 217 220 227 241 238 218 224 223 224 225 223 225 216 221 204 228 239 202 179 186 185 180 180 181 181 172 169 168 171
176 212 219 205 204 213 294 301 290 325 324 307 321 354 305 254 201 206 211 215 218 221 228 238 223 213 215 217 221 233 232 230 216 199 210 189 188 190 193 186 189 188 184 185 178 176 171 170 170
216 240 203 218 242 250 238 285 281 300 290 276 296 312 311 291 215 210 216 222 230 232 230 228 224 214 214 217 218 225 221 230 208 211 227 209 203 204 185 187 183 190 191 185 181 178 178 180 180
252 239 236 245 258 267 252 280 270 251 266 283 289 295 286 260 226 220 219 222 221 229 231 235 226 224 221 219 220 222 231 230 229 223 211 211 194 199 195 208 193 190 191 186 185 183 182 183 183
233 235 257 260 259 252 266 247 258 248 279 285 293 293 291 266 235 223 222 224 229 231 230 232 233 229 224 223 215 221 228 229 231 216 207 199 203 199 203 193 188 192 196 189 187 185 185 184 182
265 271 257 260 255 256 263 268 240 270 279 287 288 287 289 271 234 219 217 224 228 232 229 232 231 225 223 218 215 220 226 228 227 218 209 199 194 197 195 187 190 194 194 192 190 187 185 185 184
267 291 275 237 226 222 238 262 217 269 280 280 276 281 278 256 228 221 221 227 230 228 227 230 223 220 217 208 219 222 222 222 222 212 201 201 199 193 193 197 192 195 193 193 193 190 189 183 182
308 275 282 260 195 221 182 268 260 267 266 266 275 269 264 244 228 224 225 230 229 221 225 223 224 225 208 206 214 223 222 217 217 218 217 208 206 210 216 204 197 195 193 194 197 192 186 182 187
282 262 272 305 226 213 182 254 206 265 283 270 282 272 256 244 230 230 229 231 228 223 222 220 224 225 214 209 210 222 216 216 217 223 216 212 212 210 210 206 198 197 193 194 196 193 192 189 191
240 250 255 256 269 173 250 267 292 285 282 278 290 276 247 242 238 233 231 229 225 220 220 220 227 224 216 197 202 218 220 216 220 228 230 220 203 205 203 200 201 197 193 196 197 196 193 194 193
259 274 268 263 288 303 269 273 279 287 289 282 283 269 242 240 247 235 234 228 222 217 217 221 230 222 204 195 205 213 211 204 211 214 215 209 205 204 201 202 201 200 196 196 197 198 195 189 192
248 264 272 257 256 259 269 275 281 275 257 261 264 271 263 252 239 233 232 224 221 217 215 220 230 224 211 204 207 217 212 201 206 192 196 181 186 187 201 198 200 201 196 196 197 199 194 195 194
245 246 260 268 278 266 296 282 282 275 249 254 256 264 270 252 226 223 224 219 215 214 215 217 226 226 212 203 211 219 206 209 211 203 203 189 180 188 199 199 204 203 200 200 200 200 203 198 191
268 225 244 265 269 248 156 285 304 296 278 244 263 273 269 237 221 222 220 216 214 215 213 215 221 225 217 206 209 226 216 206 211 204 206 211 205 201 203 200 206 207 206 208 206 205 207 207 197
245 255 306 253 264 276 183 283 268 260 263 264 260 274 267 245 220 224 224 222 215 213 211 211 215 223 225 209 211 219 221 223 218 224 217 221 222 221 219 212 204 209 209 209 209 207 205 208 213
274 334 282 291 239 257 200 210 256 222 223 256 250 277 283 253 228 234 226 216 214 213 209 209 212 220 228 218 213 215 220 223 228 230 236 242 234 229 225 223 209 206 211 208 212 210 209 208 219
117 268 262 238 212 247 213 196 242 265 319 314 313 297 282 270 258 233 225 213 213 213 206 209 210 218 224 223 220 220 220 225 235 240 243 243 242 231 233 226 219 215 215 209 211 213 210 220 222
178 205 216 261 230 288 220 224 244 24 342 335 334 333 316 274 242 224 223 217 213 211 207 208 211 213 217 224 227 225 227 229 232 228 230 233 232 231 232 225 221 224 222 220 216 218 218 215 227
194 209 142 308 214 303 240 268 166 10 6 3 355 346 346 299 243 224 220 215 210 207 206 206 208 211 215 221 225 231 228 229 227 228 230 237 227 225 228 230 225 226 226 226 220 220 223 226 229
149 13 165 171 259 222 233 237 26 5 356 1 2 350 358 48 164 193 205 204 202 199 199 203 207 213 217 221 222 224 225 235 241 238 234 232 225 227 237 236 222 228 230 230 227 226 229 231 232
165 199 210 285 231 308 304 122 72 30 24 16 14 18 30 67 104 149 169 171 175 184 192 198 200 210 215 222 220 226 230 236 239 244 248 247 236 220 229 226 226 229 231 233 240 227 233 234 239
145 155 163 248 206 190 221 292 19 55 36 30 30 36 41 56 76 103 135 154 163 173 182 194 200 212 225 235 230 232 232 236 247 241 244 249 246 235 230 231 228 230 233 235 241 242 242 241 242
Wind_Speed_850mb
20 18 15 9 6 9 7 13 5 10 15 4 3 10 17 9 11 9 44 34 26 22 20 24 32 37 44 45 46 46 47 49 49 49 54 56 54 56 55 52 52 51 49 48 46 44 42 42 45
22 22 17 7 9 4 11 9 12 11 12 26 4 10 4 5 13 23 38 31 23 18 16 18 25 36 47 48 47 48 47 47 47 50 54 60 58 55 53 52 53 50 47 46 46 45 43 47 47
27 27 12 9 8 12 12 12 10 6 23 5 6 5 7 5 17 38 24 27 24 22 20 17 22 34 46 50 51 49 48 47 46 51 55 62 62 59 58 55 51 46 42 42 47 49 51 49 48
26 13 4 8 15 15 13 9 8 15 20 12 7 8 11 15 16 30 28 27 25 22 20 19 18 28 45 52 53 53 51 49 50 51 59 66 65 64 60 56 51 44 42 43 46 52 51 46 49
29 8 3 5 11 13 11 27 7 13 8 24 19 9 10 20 21 32 31 28 25 23 18 17 17 25 39 52 54 54 53 52 51 53 58 62 62 62 60 58 53 47 47 47 49 49 50 45 47
10 6 3 12 8 12 14 27 7 11 20 41 14 25 18 24 29 33 33 26 24 19 19 17 22 30 34 45 53 51 53 53 52 57 62 65 55 53 54 55 51 46 48 54 54 53 50 48 49
12 8 11 11 7 10 17 19 12 9 13 17 18 15 15 28 36 34 30 26 24 22 21 17 24 35 32 32 40 46 48 47 49 51 52 58 50 52 43 40 47 54 56 54 55 56 55 51 47
11 8 8 12 11 14 11 5 4 7 9 21 7 7 11 37 44 39 32 30 27 25 20 17 20 35 37 34 36 45 50 54 52 48 50 41 48 50 48 50 54 55 54 55 59 59 56 53 46
12 2 8 14 15 11 3 4 5 13 15 44 16 28 13 17 51 47 44 41 39 30 24 19 17 33 35 28 31 38 43 48 50 56 63 52 63 46 53 52 48 53 52 57 62 59 55 49 43
10 10 15 13 11 9 7 11 22 15 25 35 35 19 26 18 63 59 54 52 42 33 24 20 20 26 32 32 37 35 36 40 40 70 58 53 48 51 60 57 46 50 49 61 59 58 54 48 42
9 14 6 8 24 18 7 18 12 10 16 28 25 49 48 30 63 63 56 49 38 30 25 21 23 27 32 38 41 46 44 46 54 66 63 80 64 56 53 54 51 49 50 65 65 63 54 47 42
11 15 22 17 36 21 14 26 16 28 43 61 56 61 57 44 67 69 58 51 45 35 26 23 25 30 33 33 43 44 48 51 47 48 68 72 73 67 62 66 61 54 60 75 73 66 55 46 44
14 7 18 28 35 37 42 21 33 26 64 65 59 52 56 41 60 75 59 49 42 39 32 24 24 29 30 29 36 41 47 45 41 51 59 79 73 72 59 71 63 60 67 79 74 63 54 47 45
14 17 34 40 48 42 31 38 17 46 62 56 51 53 53 47 62 76 64 57 52 44 33 26 27 26 28 26 32 38 39 40 40 49 64 72 72 63 80 72 65 64 76 80 72 65 57 49 49
17 15 16 14 14 16 26 19 20 60 50 54 50 53 51 50 65 78 64 60 54 44 33 29 27 24 23 23 31 33 38 41 45 61 65 73 72 68 68 69 69 67 81 80 71 63 57 55 52
8 6 10 8 16 16 25 42 21 44 45 51 52 54 55 59 70 76 69 62 51 44 38 30 28 26 27 31 29 31 35 40 43 49 60 71 74 72 72 75 74 69 83 82 75 66 60 57 48
4 17 15 10 12 13 17 18 8 17 22 29 37 45 53 66 76 79 73 67 55 46 37 33 29 30 31 33 33 32 32 35 36 43 52 60 71 77 74 83 77 68 80 83 76 68 65 59 51
8 10 11 9 6 2 11 20 13 21 28 37 45 51 50 58 76 83 78 69 56 49 39 35 31 31 34 33 31 32 31 34 35 33 42 55 73 71 80 70 71 68 80 85 80 75 68 61 50
8 14 23 8 13 10 15 17 23 17 27 30 47 45 56 55 55 83 85 69 59 54 49 41 35 34 38 40 39 37 31 31 30 23 23 50 86 86 68 69 72 72 84 87 86 81 71 59 52
15 18 22 12 17 20 19 21 23 20 18 42 45 53 55 54 59 71 79 73 66 64 53 46 38 34 39 40 38 38 37 34 27 29 33 40 40 54 49 59 67 71 75 80 84 84 79 66 58
17 21 14 17 21 20 11 32 29 22 19 37 38 51 49 53 63 72 71 73 74 74 62 50 41 34 39 43 38 36 35 35 29 32 43 48 55 56 64 62 66 67 74 79 86 91 92 85 66
17 14 23 18 13 9 8 15 15 15 19 13 32 44 42 46 56 65 68 72 81 76 66 52 42 35 37 46 39 37 36 39 41 41 42 50 62 55 66 71 73 63 69 69 79 86 86 82 74
12 7 12 10 9 6 3 11 8 13 14 15 16 42 35 23 33 56 68 75 81 77 67 55 45 37 37 44 43 41 41 36 37 38 42 53 57 60 54 67 72 73 71 74 74 78 89 78 76
11 8 12 7 4 12 15 15 7 9 14 11 8 22 27 26 25 42 57 69 76 75 66 59 50 39 37 41 47 47 45 45 44 42 45 51 52 60 61 57 75 65 69 73 75 71 80 85 74
5 3 4 6 7 8 8 14 21 18 18 10 19 36 38 26 27 48 63 72 80 78 70 64 52 41 35 38 42 46 47 47 45 46 49 47 48 55 66 69 68 64 62 72 74 78 72 77 79
12 13 6 5 6 4 3 10 7 10 13 23 25 44 28 28 34 54 64 73 83 78 71 65 54 42 35 33 34 37 38 39 36 31 35 39 45 56 49 74 72 67 67 70 82 78 80 79 75
2 13 7 8 6 3 6 11 9 30 33 33 38 47 44 24 33 57 66 70 77 78 73 64 53 39 31 27 30 32 33 33 27 24 25 27 33 39 48 53 76 67 67 64 74 82 89 93 90
4 3 5 5 6 9 9 1 6 23 27 24 29 31 36 14 4 31 48 55 60 62 63 60 46 33 27 23 23 22 26 28 29 27 25 26 30 37 41 42 67 66 64 63 69 76 77 78 85
8 5 2 6 5 6 4 3 8 19 25 22 26 44 48 35 24 22 30 37 41 47 50 48 39 32 28 21 20 20 21 23 27 31 29 28 29 36 43 46 56 58 61 65 68 70 76 82 88
6 10 9 5 4 7 2 6 6 16 26 27 31 43 51 60 52 41 32 32 34 35 32 31 29 27 22 18 16 18 16 21 21 29 31 29 29 32 41 51 56 59 59 60 63 65 70 75 77
Wind_Direction_850mb
210 191 173 153 62 65 261 258 249 277 319 294 219 155 188 170 168 209 143 151 154 158 175 188 196 204 205 205 200 198 194 189 186 185 186 187 187 182 180 177 174 173 172 170 169 171 171 161 156
187 173 155 129 105 106 262 248 237 213 282 302 212 152 158 214 155 154 158 168 164 166 168 185 198 207 209 207 205 198 193 191 187 184 187 187 187 185 185 182 179 180 180 175 171 169 168 163 163
176 169 160 127 142 187 222 222 226 212 327 302 303 261 303 235 188 172 169 173 174 170 167 169 192 208 213 214 209 202 197 194 192 190 188 188 186 188 187 185 186 184 178 167 168 168 168 168 166
165 161 100 131 198 253 204 235 180 336 345 35 310 274 257 220 181 184 173 176 181 177 173 177 187 205 213 216 216 209 203 201 199 193 187 187 189 190 189 192 189 183 175 170 169 172 172 170 169
170 159 122 204 231 267 249 262 305 300 302 284 268 247 251 212 198 183 182 187 195 189 187 196 206 210 212 217 218 217 210 204 202 200 198 196 193 195 195 194 188 178 172 175 176 178 174 173 170
151 129 119 225 228 253 270 256 252 261 278 300 213 221 235 220 200 191 186 192 196 207 214 218 218 218 214 218 220 219 219 213 207 204 201 194 195 198 193 190 184 177 176 177 177 176 175 173 172
148 119 213 192 201 247 253 279 197 228 276 313 262 171 207 220 203 199 192 201 206 213 230 235 228 224 218 213 220 220 220 217 215 205 201 189 193 189 185 189 178 169 174 176 176 179 171 169 172
201 125 194 201 172 251 258 248 236 219 287 3 355 222 219 213 203 197 203 207 216 219 228 228 232 222 224 224 224 214 216 217 206 184 192 181 174 180 190 199 182 175 173 175 182 176 168 169 170
179 225 218 197 176 228 226 16 286 289 275 320 319 283 266 226 200 199 206 212 217 220 227 241 238 218 224 223 224 225 223 225 216 221 204 228 239 202 179 186 185 180 180 181 181 172 169 168 171
176 212 219 205 204 213 294 301 290 325 324 307 321 354 305 254 201 206 211 215 218 221 228 238 223 213 215 217 221 233 232 230 216 199 210 189 188 190 193 186 189 188 184 185 178 176 171 170 170
216 240 203 218 242 250 238 285 281 300 290 276 296 312 311 291 215 210 216 222 230 232 230 228 224 214 214 217 218 225 221 230 208 211 227 209 203 204 185 187 183 190 191 185 181 178 178 180 180
252 239 236 245 258 267 252 280 270 251 266 283 289 295 286 260 226 220 219 222 221 229 231 235 226 224 221 219 220 222 231 230 229 223 211 211 194 199 195 208 193 190 191 186 185 183 182 183 183
233 235 257 260 259 252 266 247 258 248 279 285 293 293 291 266 235 223 222 224 229 231 230 232 233 229 224 223 215 221 228 229 231 216 207 199 203 199 203 193 188 192 196 189 187 185 185 184 182
265 271 257 260 255 256 263 268 240 270 279 287 288 287 289 271 234 219 217 224 228 232 229 232 231 225 223 218 215 220 226 228 227 218 209 199 194 197 195 187 190 194 194 192 190 187 185 185 184
267 291 275 237 226 222 238 262 217 269 280 280 276 281 278 256 228 221 221 227 230 228 227 230 223 220 217 208 219 222 222 222 222 212 201 201 199 193 193 197 192 195 193 193 193 190 189 183 182
308 275 282 260 195 221 182 268 260 267 266 266 275 269 264 244 228 224 225 230 229 221 225 223 224 225 208 206 214 223 222 217 217 218 217 208 206 210 216 204 197 195 193 194 197 192 186 182 187
282 262 272 305 226 213 182 254 206 265 283 270 282 272 256 244 230 230 229 231 228 223 222 220 224 225 214 209 210 222 216 216 217 223 216 212 212 210 210 206 198 197 193 194 196 193 192 189 191
240 250 255 256 269 173 250 267 292 285 282 278 290 276 247 242 238 233 231 229 225 220 220 220 227 224 216 197 202 218 220 216 220 228 230 220 203 205 203 200 201 197 193 196 197 196 193 194 193
259 274 268 263 288 303 269 273 279 287 289 282 283 269 242 240 247 235 234 228 222 217 217 221 230 222 204 195 205 213 211 204 211 214 215 209 205 204 201 202 201 200 196 196 197 198 195 189 192
248 264 272 257 256 259 269 275 281 275 257 261 264 271 263 252 239 233 232 224 221 217 215 220 230 224 211 204 207 217 212 201 206 192 196 181 186 187 201 198 200 201 196 196 197 199 194 195 194
245 246 260 268 278 266 296 282 282 275 249 254 256 264 270 252 226 223 224 219 215 214 215 217 226 226 212 203 211 219 206 209 211 203 203 189 180 188 199 199 204 203 200 200 200 200 203 198 191
268 225 244 265 269 248 156 285 304 296 278 244 263 273 269 237 221 222 220 216 214 215 213 215 221 225 217 206 209 226 216 206 211 204 206 211 205 201 203 200 206 207 206 208 206 205 207 207 197
245 255 306 253 264 276 183 283 268 260 263 264 260 274 267 245 220 224 224 222 215 213 211 211 215 223 225 209 211 219 221 223 218 224 217 221 222 221 219 212 204 209 209 209 209 207 205 208 213
274 334 282 291 239 257 200 210 256 222 223 256 250 277 283 253 228 234 226 216 214 213 209 209 212 220 228 218 213 215 220 223 228 230 236 242 234 229 225 223 209 206 211 208 212 210 209 208 219
117 268 262 238 212 247 213 196 242 265 319 314 313 297 282 270 258 233 225 213 213 213 206 209 210 218 224 223 220 220 220 225 235 240 243 243 242 231 233 226 219 215 215 209 211 213 210 220 222
178 205 216 261 230 288 220 224 244 24 342 335 334 333 316 274 242 224 223 217 213 211 207 208 211 213 217 224 227 225 227 229 232 228 230 233 232 231 232 225 221 224 222 220 216 218 218 215 227
194 209 142 308 214 303 240 268 166 10 6 3 355 346 346 299 243 224 220 215 210 207 206 206 208 211 215 221 225 231 228 229 227 228 230 237 227 225 228 230 225 226 226 226 220 220 223 226 229
149 13 165 171 259 222 233 237 26 5 356 1 2 350 358 48 164 193 205 204 202 199 199 203 207 213 217 221 222 224 225 235 241 238 234 232 225 227 237 236 222 228 230 230 227 226 229 231 232
165 199 210 285 231 308 304 122 72 30 24 16 14 18 30 67 104 149 169 171 175 184 192 198 200 210 215 222 220 226 230 236 239 244 248 247 236 220 229 226 226 229 231 233 240 227 233 234 239
145 155 163 248 206 190 221 292 19 55 36 30 30 36 41 56 76 103 135 154 163 173 182 194 200 212 225 235 230 232 232 236 247 241 244 249 246 235 230 231 228 230 233 235 241 242 242 241 242